GW4164 Weather Reports


time (UTC)temp
C
wind
direction
speed
KPH
gust
KPH
rain 1hr
cm
rain 24hr
cm
rain mn
cm
humidity
%
barometer
mb
20260507030316 23 118 0.0 1.6 0.00 0.00 0.00 24
20260507025315 23 92 0.0 0.0 0.00 0.00 0.00 24
20260507024315 24 92 0.0 1.6 0.00 0.00 0.00 23
20260507023312 25 73 0.0 0.0 0.00 0.00 0.00 22
20260507022312 25 76 0.0 0.0 0.00 0.00 0.00 22
20260507021310 26 84 0.0 0.0 0.00 0.00 0.00 21
20260507020310 26 167 3.2 9.7 0.00 0.00 0.00 20
20260507015310 26 277 0.0 4.8 0.00 0.00 0.00 20
20260507014309 27 36 3.2 9.7 0.00 0.00 0.00 19
20260507013309 27 240 6.4 16.1 0.00 0.00 0.00 19
20260507012308 27 285 4.8 11.3 0.00 0.00 0.00 18
20260507011308 27 310 6.4 16.1 0.00 0.00 0.00 19
20260507010303 28 286 16.1 24.1 0.00 0.00 0.00 18
20260507005305 28 175 14.5 20.9 0.00 0.00 0.00 17
20260507004303 29 272 11.3 16.1 0.00 0.00 0.00 17
20260507003301 29 273 17.7 25.7 0.00 0.00 0.00 16
20260507002259 30 273 11.3 20.9 0.00 0.00 0.00 17
20260507001254 30 253 3.2 17.7 0.00 0.00 0.00 16
20260507000251 30 300 8.0 20.9 0.00 0.00 0.00 16
20260506235250 30 262 4.8 12.9 0.00 0.00 0.00 15
20260506234244 31 327 12.9 16.1 0.00 0.00 0.00 15
20260506233244 30 230 8.0 25.7 0.00 0.00 0.00 15
20260506232241 31 185 1.6 11.3 0.00 0.00 0.00 15
20260506231237 31 276 6.4 14.5 0.00 0.00 0.00 15
20260506230236 31 267 9.7 24.1 0.00 0.00 0.00 15
20260506225236 31 277 14.5 20.9 0.00 0.00 0.00 15
20260506224236 31 258 12.9 27.4 0.00 0.00 0.00 14
20260506223233 31 128 4.8 17.7 0.00 0.00 0.00 15
20260506222232 31 211 9.7 22.5 0.00 0.00 0.00 15
20260506221228 31 249 4.8 16.1 0.00 0.00 0.00 15
20260506220225 32 71 9.7 24.1 0.00 0.00 0.00 15
20260506215224 32 264 12.9 24.1 0.00 0.00 0.00 15
20260506214224 31 284 12.9 16.1 0.00 0.00 0.00 15
20260506213219 31 208 11.3 20.9 0.00 0.00 0.00 15
20260506212217 32 215 8.0 22.5 0.00 0.00 0.00 15
20260506211216 31 166 3.2 14.5 0.00 0.00 0.00 15
20260506210215 31 185 12.9 29.0 0.00 0.00 0.00 15
20260506205213 31 248 6.4 17.7 0.00 0.00 0.00 15
20260506204208 31 274 8.0 22.5 0.00 0.00 0.00 14
20260506203203 31 266 11.3 17.7 0.00 0.00 0.00 15
20260506202202 31 227 6.4 11.3 0.00 0.00 0.00 14
20260506201202 31 251 8.0 14.5 0.00 0.00 0.00 14
20260506200202 31 155 1.6 14.5 0.00 0.00 0.00 14
20260506195200 31 291 20.9 27.4 0.00 0.00 0.00 15
20260506194200 31 195 11.3 17.7 0.00 0.00 0.00 15
20260506193200 31 154 4.8 17.7 0.00 0.00 0.00 16
20260506192200 30 178 1.6 14.5 0.00 0.00 0.00 16
20260506191158 31 209 12.9 24.1 0.00 0.00 0.00 16
20260506190158 30 182 8.0 11.3 0.00 0.00 0.00 15
20260506185157 30 206 9.7 12.9 0.00 0.00 0.00 15
20260506184152 30 222 9.7 16.1 0.00 0.00 0.00 16
20260506183151 30 220 17.7 20.9 0.00 0.00 0.00 14
20260506182151 30 242 16.1 20.9 0.00 0.00 0.00 13
20260506181146 30 253 9.7 16.1 0.00 0.00 0.00 13
20260506180145 29 228 6.4 16.1 0.00 0.00 0.00 13
20260506175144 30 213 1.6 17.7 0.00 0.00 0.00 13
20260506174139 28 246 4.8 14.5 0.00 0.00 0.00 12
20260506173139 28 255 6.4 11.3 0.00 0.00 0.00 12
20260506172138 28 12 4.8 20.9 0.00 0.00 0.00 11
20260506171134 28 272 9.7 17.7 0.00 0.00 0.00 11
20260506170128 27 72 0.0 3.2 0.00 0.00 0.00 13
20260506165127 27 63 0.0 6.4 0.00 0.00 0.00 13
20260506164127 27 111 0.0 4.8 0.00 0.00 0.00 14
20260506163123 26 89 0.0 0.0 0.00 0.00 0.00 14
20260506162122 26 169 12.9 12.9 0.00 0.00 0.00 15
20260506161121 26 220 1.6 6.4 0.00 0.00 0.00 15
20260506160121 26 133 0.0 1.6 0.00 0.00 0.00 16
20260506155116 25 163 1.6 9.7 0.00 0.00 0.00 18
20260506152726 24 108 0.0 1.6 0.00 0.00 0.00 20
20260506151723 23 73 0.0 0.0 0.00 0.00 0.00 23
20260506150721 24 79 0.0 0.0 0.00 0.00 0.00 24
20260506145716 23 76 0.0 0.0 0.00 0.00 0.00 25
20260506144715 22 99 0.0 0.0 0.00 0.00 0.00 24
20260506143710 20 76 0.0 0.0 0.00 0.00 0.00 26
20260506142706 19 72 0.0 0.0 0.00 0.00 0.00 27
20260506141701 18 72 0.0 0.0 0.00 0.00 0.00 30
20260506140656 17 75 0.0 0.0 0.00 0.00 0.00 32
20260506135656 17 71 0.0 0.0 0.00 0.00 0.00 31
20260506134655 16 76 0.0 0.0 0.00 0.00 0.00 31
20260506133654 15 76 0.0 0.0 0.00 0.00 0.00 33
20260506132654 15 72 0.0 0.0 0.00 0.00 0.00 33
20260506131649 13 66 0.0 0.0 0.00 0.00 0.00 35
20260506130647 12 63 0.0 0.0 0.00 0.00 0.00 36
20260506125643 11 47 0.0 0.0 0.00 0.00 0.00 37
20260506124638 10 44 0.0 0.0 0.00 0.00 0.00 39
20260506123633 10 34 0.0 0.0 0.00 0.00 0.00 41
20260506122628 10 64 0.0 0.0 0.00 0.00 0.00 43
20260506121623 11 68 0.0 0.0 0.00 0.00 0.00 42
20260506120623 11 62 0.0 0.0 0.00 0.00 0.00 42
20260506115619 11 73 0.0 0.0 0.00 0.00 0.00 41
20260506114614 11 31 0.0 1.6 0.00 0.00 0.00 39
20260506113609 11 22 0.0 1.6 0.00 0.00 0.00 39
20260506112609 11 57 0.0 0.0 0.00 0.00 0.00 39
20260506111604 11 62 0.0 0.0 0.00 0.00 0.00 39
20260506110559 12 65 0.0 0.0 0.00 0.00 0.00 39
20260506105558 12 56 0.0 0.0 0.00 0.00 0.00 37
20260506104553 12 40 0.0 0.0 0.00 0.00 0.00 37
20260506103548 12 35 0.0 0.0 0.00 0.00 0.00 37
20260506102543 12 41 0.0 0.0 0.00 0.00 0.00 37
20260506101542 12 31 0.0 1.6 0.00 0.00 0.00 37
20260506100537 12 58 0.0 0.0 0.00 0.00 0.00 37
20260506095534 13 52 0.0 0.0 0.00 0.00 0.00 35
20260506094533 13 56 0.0 0.0 0.00 0.00 0.00 35
20260506093529 13 39 0.0 0.0 0.00 0.00 0.00 35
20260506092524 13 56 0.0 0.0 0.00 0.00 0.00 35
20260506091519 13 65 0.0 0.0 0.00 0.00 0.00 35
20260506090514 13 17 0.0 1.6 0.00 0.00 0.00 35
20260506085512 13 48 0.0 0.0 0.00 0.00 0.00 34
20260506084512 14 51 0.0 0.0 0.00 0.00 0.00 34
20260506083511 14 41 0.0 0.0 0.00 0.00 0.00 34
20260506082511 15 63 0.0 0.0 0.00 0.00 0.00 34
20260506081511 15 57 0.0 0.0 0.00 0.00 0.00 33
20260506080511 15 63 0.0 0.0 0.00 0.00 0.00 32
20260506073500 16 57 0.0 0.0 0.00 0.00 0.00 32
20260506072500 17 66 0.0 0.0 0.00 0.00 0.00 31
20260506071456 17 59 0.0 0.0 0.00 0.00 0.00 31
20260506070456 17 60 0.0 0.0 0.00 0.00 0.00 31
20260506062445 18 60 0.0 0.0 0.00 0.00 0.00 31
20260506061443 18 76 0.0 0.0 0.00 0.00 0.00 30
20260506060440 19 75 0.0 0.0 0.00 0.00 0.00 29
20260506050429 20 76 0.0 0.0 0.00 0.00 0.00 26
20260506044423 21 88 0.0 0.0 0.00 0.00 0.00 25
20260506043423 21 79 0.0 0.0 0.00 0.00 0.00 25
20260506042420 21 80 0.0 0.0 0.00 0.00 0.00 24
20260506041420 21 109 0.0 3.2 0.00 0.00 0.00 23
20260506040420 21 91 0.0 0.0 0.00 0.00 0.00 22
20260506035420 22 78 0.0 0.0 0.00 0.00 0.00 20
20260506034419 22 89 0.0 0.0 0.00 0.00 0.00 20
20260506033414 22 78 0.0 0.0 0.00 0.00 0.00 20
20260506032413 22 86 0.0 1.6 0.00 0.00 0.00 19
20260506031413 22 81 0.0 1.6 0.00 0.00 0.00 19